User: anonymous   Login
Location: Unspecified
(52.0907°N, 0.0000°E)
Time: 08:26:36
(UTC+00:00)
Language:

SL-08 RB Rocket - Orbit

View from above orbital plane
View from above orbital plane
View from above satellite
View from above satellite

Ground track
Ground track

The orbit is defined by the following mean orbital elements,

1 26387U          26088.20913253 +.00000000 +00000-0 +19149-3 0 00005
2 26387  97.8330  62.7789 0024822 153.1425 207.1075 14.73822624    07
Epoch (UTC): 29 March 2026 05:01:09
Eccentricity: 0.0024822
inclination: 97.8330°
perigee height: 631 km
apogee height: 666 km
right ascension of ascending node: 62.7789°
argument of perigee: 153.1425°
revolutions per day: 14.73822624
mean anomaly at epoch: 207.1075°

The dashed part of the orbit path shows where the satellite is in the earth's shadow,  

DLR